Location: LDNL
(36.4545°S, 141.6685°E)
Time: 15:31:57
(UTC+10:00)

Hubble Space Telescope - Pass Details

Date: 28 June 2022
Orbit: 532 x 535 km, 28.5° (Epoch: 10 August)

Event Time Altitude Azimuth Distance (km) Brightness Sun altitude
Exits shadow 05:57:54 20° 334° (NNW) 1,266 2.5 -21.0°
Maximum altitude 05:59:23 25° 6° (N) 1,108 2.5 -20.7°
Drops below altitude 10° 06:02:48 10° 62° (ENE) 1,792 4.6 -20.1°
Sets 06:05:21 0° 75° (ENE) 2,684 6.0 -19.6°
